Location: Dampvalley
(47.9094°N, 6.1967°E)
Time: 15:03:01
(UTC+00:00)

Cosmos 2315 Rocket - Pass Details

Date: 05 March 2021
Orbit: 967 x 1001 km, 82.9° (Epoch: 14 April)

Event Time Altitude Azimuth Distance (km) Brightness Sun altitude
Rises 04:25:23 0° 192° (SSW) 3,653 6.8 -18.0°
Reaches altitude 10° 04:27:54 10° 194° (SSW) 2,707 6.1 -17.6°
Maximum altitude 04:34:06 76° 280° (W) 1,003 3.9 -16.6°
Drops below altitude 10° 04:40:19 10° 6° (N) 2,720 6.5 -15.5°
Sets 04:42:51 0° 9° (N) 3,672 7.2 -15.1°
